• In Deutschland
  • Länderverzeichnis
  • Für 7 Tage
  • Wassertemperatur
  • Satellitenkarten
  • Wetterkarte
  • Widgets
  • user-avatar
    Anmelden

    Stündliche Wetter Bad Königshofen im Grabfeld

    Heute, 25 Juni, Montag

    Zeit Temperatur Niederschläge Wind Luftdruck Luftfeuchtigkeit
    00:00 +12°C° 0 mm 1 m/S 740 mmHg 94%
    01:00 +11°C° 0 mm 1 m/S 740 mmHg 95%
    02:00 +11°C° 0 mm 1 m/S 740 mmHg 96%
    03:00 +11°C° 0 mm 1 m/S 740 mmHg 96%
    04:00 +11°C° 0 mm 1 m/S 740 mmHg 96%
    05:00 +12°C° 0 mm 1 m/S 741 mmHg 93%
    06:00 +13°C° 0 mm 1 m/S 741 mmHg 90%
    07:00 +13°C° 0 mm 2 m/S 741 mmHg 87%
    08:00 +14°C° 0 mm 2 m/S 741 mmHg 82%
    09:00 +15°C° 0 mm 2 m/S 742 mmHg 78%
    10:00 +16°C° 0 mm 2 m/S 742 mmHg 73%
    11:00 +16°C° 0 mm 2 m/S 742 mmHg 71%
    12:00 +17°C° 0 mm 2 m/S 742 mmHg 68%
    13:00 +17°C° 0 mm 2 m/S 742 mmHg 66%
    14:00 +18°C° 0 mm 3 m/S 742 mmHg 65%
    15:00 +19°C° 0 mm 3 m/S 742 mmHg 64%
    16:00 +19°C° 0 mm 3 m/S 742 mmHg 63%
    17:00 +19°C° 0 mm 3 m/S 742 mmHg 67%
    18:00 +18°C° 0 mm 3 m/S 742 mmHg 72%
    19:00 +18°C° 0 mm 2 m/S 742 mmHg 77%
    20:00 +16°C° 0 mm 2 m/S 742 mmHg 82%
    21:00 +15°C° 0 mm 1 m/S 742 mmHg 87%
    22:00 +14°C° 0 mm 1 m/S 742 mmHg 92%
    23:00 +13°C° 0 mm 1 m/S 742 mmHg 93%

    Morgen, 26 Juni, Dienstag

    Zeit Temperatur Niederschläge Wind Luftdruck Luftfeuchtigkeit
    00:00 +13°C° 0 mm 1 m/S 742 mmHg 94%
    01:00 +11°C° 0 mm 0 m/S 742 mmHg 95%
    02:00 +11°C° 0 mm 0 m/S 742 mmHg 95%
    03:00 +11°C° 0 mm 0 m/S 742 mmHg 95%
    04:00 +12°C° 0 mm 0 m/S 742 mmHg 96%
    05:00 +12°C° 0 mm 0 m/S 742 mmHg 94%
    06:00 +13°C° 0 mm 0 m/S 742 mmHg 92%
    07:00 +14°C° 0 mm 0 m/S 742 mmHg 91%
    08:00 +15°C° 0 mm 0 m/S 742 mmHg 86%
    09:00 +16°C° 0 mm 0 m/S 742 mmHg 82%
    10:00 +20°C° 0 mm 1 m/S 743 mmHg 77%
    11:00 +20°C° 0 mm 1 m/S 742 mmHg 74%
    12:00 +21°C° 0 mm 1 m/S 742 mmHg 70%
    13:00 +20°C° 0 mm 2 m/S 742 mmHg 67%
    14:00 +21°C° 0 mm 2 m/S 742 mmHg 66%
    15:00 +21°C° 0 mm 2 m/S 742 mmHg 65%
    16:00 +21°C° 0 mm 2 m/S 742 mmHg 63%
    17:00 +21°C° 0 mm 2 m/S 742 mmHg 67%
    18:00 +21°C° 0 mm 2 m/S 742 mmHg 70%
    19:00 +20°C° 0 mm 2 m/S 741 mmHg 73%
    20:00 +18°C° 0 mm 2 m/S 742 mmHg 80%
    21:00 +18°C° 0 mm 1 m/S 742 mmHg 86%
    22:00 +15°C° 0 mm 1 m/S 742 mmHg 92%
    23:00 +14°C° 0 mm 1 m/S 742 mmHg 93%

    übermorgen, 27 Juni, Mittwoch

    Zeit Temperatur Niederschläge Wind Luftdruck Luftfeuchtigkeit
    00:00 +14°C° 0 mm 1 m/S 742 mmHg 93%
    01:00 +14°C° 0 mm 1 m/S 742 mmHg 94%
    02:00 +13°C° 0 mm 1 m/S 742 mmHg 95%
    03:00 +13°C° 0 mm 1 m/S 742 mmHg 95%
    04:00 +13°C° 0 mm 1 m/S 742 mmHg 96%
    05:00 +14°C° 0 mm 2 m/S 742 mmHg 91%
    06:00 +15°C° 0 mm 2 m/S 742 mmHg 87%
    07:00 +16°C° 0 mm 3 m/S 742 mmHg 82%
    08:00 +17°C° 0 mm 3 m/S 742 mmHg 72%
    09:00 +19°C° 0 mm 4 m/S 742 mmHg 63%
    10:00 +20°C° 0 mm 4 m/S 742 mmHg 54%
    11:00 +21°C° 0 mm 4 m/S 742 mmHg 53%
    12:00 +22°C° 0 mm 5 m/S 742 mmHg 52%
    13:00 +22°C° 0 mm 5 m/S 742 mmHg 51%
    14:00 +22°C° 0 mm 5 m/S 742 mmHg 52%
    15:00 +22°C° 0 mm 5 m/S 741 mmHg 53%
    16:00 +22°C° 0 mm 5 m/S 741 mmHg 54%
    17:00 +21°C° 0 mm 4 m/S 741 mmHg 60%
    18:00 +21°C° 0 mm 4 m/S 741 mmHg 66%
    19:00 +20°C° 0 mm 3 m/S 741 mmHg 72%
    20:00 +18°C° 0 mm 3 m/S 741 mmHg 79%
    21:00 +16°C° 0 mm 2 m/S 741 mmHg 85%
    22:00 +15°C° 0 mm 2 m/S 741 mmHg 91%
    23:00 +14°C° 0 mm 2 m/S 741 mmHg 93%

    28 Juni, Donnerstag

    Zeit Temperatur Niederschläge Wind Luftdruck Luftfeuchtigkeit
    00:00 +14°C° 0 mm 2 m/S 741 mmHg 94%
    01:00 +13°C° 0 mm 2 m/S 741 mmHg 95%
    02:00 +13°C° 0 mm 2 m/S 740 mmHg 96%
    03:00 +13°C° 0 mm 2 m/S 740 mmHg 96%
    04:00 +13°C° 0 mm 2 m/S 740 mmHg 97%
    05:00 +13°C° 0 mm 3 m/S 740 mmHg 94%
    06:00 +14°C° 0 mm 3 m/S 740 mmHg 91%
    07:00 +16°C° 0 mm 3 m/S 740 mmHg 87%
    08:00 +17°C° 0 mm 4 m/S 740 mmHg 82%
    09:00 +18°C° 0 mm 4 m/S 739 mmHg 77%
    10:00 +20°C° 0 mm 4 m/S 739 mmHg 72%
    11:00 +20°C° 0,2 mm 4 m/S 739 mmHg 71%
    12:00 +21°C° 0,2 mm 5 m/S 738 mmHg 71%
    13:00 +21°C° 0,2 mm 5 m/S 738 mmHg 71%
    14:00 +21°C° 1 mm 4 m/S 738 mmHg 77%
    15:00 +20°C° 1 mm 4 m/S 737 mmHg 82%
    16:00 +20°C° 1 mm 4 m/S 737 mmHg 88%
    17:00 +20°C° 0,9 mm 3 m/S 737 mmHg 89%
    18:00 +20°C° 0,9 mm 3 m/S 736 mmHg 90%
    19:00 +19°C° 0,9 mm 3 m/S 736 mmHg 91%
    20:00 +19°C° 0,1 mm 3 m/S 736 mmHg 91%
    21:00 +19°C° 0,1 mm 4 m/S 736 mmHg 91%
    22:00 +18°C° 0,1 mm 4 m/S 736 mmHg 90%
    23:00 +18°C° 0,4 mm 4 m/S 735 mmHg 91%

    29 Juni, Freitag

    Zeit Temperatur Niederschläge Wind Luftdruck Luftfeuchtigkeit
    00:00 +17°C° 0,4 mm 4 m/S 735 mmHg 92%
    01:00 +17°C° 0,4 mm 4 m/S 735 mmHg 93%
    02:00 +16°C° 0,8 mm 3 m/S 735 mmHg 94%
    03:00 +16°C° 0,8 mm 3 m/S 735 mmHg 95%
    04:00 +16°C° 0,8 mm 3 m/S 735 mmHg 96%
    05:00 +16°C° 0,7 mm 3 m/S 735 mmHg 96%
    06:00 +15°C° 0,7 mm 4 m/S 735 mmHg 96%
    07:00 +15°C° 0,7 mm 4 m/S 735 mmHg 95%
    08:00 +17°C° 0,4 mm 4 m/S 735 mmHg 94%
    09:00 +18°C° 0,4 mm 4 m/S 735 mmHg 93%
    10:00 +18°C° 0,4 mm 4 m/S 735 mmHg 92%
    11:00 +18°C° 0,7 mm 4 m/S 735 mmHg 92%
    12:00 +19°C° 0,7 mm 4 m/S 735 mmHg 92%
    13:00 +19°C° 0,7 mm 4 m/S 735 mmHg 92%
    14:00 +19°C° 0,5 mm 3 m/S 735 mmHg 92%
    15:00 +19°C° 0,5 mm 3 m/S 735 mmHg 92%
    16:00 +19°C° 0,5 mm 3 m/S 735 mmHg 92%
    17:00 +18°C° 0,2 mm 2 m/S 735 mmHg 92%
    18:00 +18°C° 0,2 mm 2 m/S 735 mmHg 92%
    19:00 +19°C° 0,2 mm 1 m/S 735 mmHg 91%
    20:00 +18°C° 0,1 mm 2 m/S 735 mmHg 92%
    21:00 +18°C° 0,1 mm 2 m/S 736 mmHg 92%
    22:00 +17°C° 0,1 mm 2 m/S 736 mmHg 92%
    23:00 +17°C° 0 mm 2 m/S 736 mmHg 93%

    30 Juni, Samstag

    Zeit Temperatur Niederschläge Wind Luftdruck Luftfeuchtigkeit
    00:00 +16°C° 0 mm 2 m/S 736 mmHg 94%
    01:00 +16°C° 0 mm 2 m/S 737 mmHg 94%
    02:00 +15°C° 0 mm 2 m/S 737 mmHg 95%
    03:00 +14°C° 0 mm 2 m/S 737 mmHg 95%
    04:00 +14°C° 0 mm 2 m/S 737 mmHg 95%
    05:00 +15°C° 0 mm 2 m/S 737 mmHg 92%
    06:00 +16°C° 0 mm 2 m/S 738 mmHg 88%
    07:00 +17°C° 0 mm 2 m/S 738 mmHg 85%
    08:00 +19°C° 0 mm 2 m/S 738 mmHg 77%
    09:00 +21°C° 0 mm 3 m/S 739 mmHg 68%
    10:00 +24°C° 0 mm 3 m/S 739 mmHg 60%
    11:00 +25°C° 0 mm 3 m/S 739 mmHg 58%
    12:00 +26°C° 0 mm 3 m/S 739 mmHg 56%
    13:00 +27°C° 0 mm 4 m/S 739 mmHg 54%
    14:00 +27°C° 0 mm 4 m/S 739 mmHg 55%
    15:00 +27°C° 0 mm 4 m/S 739 mmHg 55%
    16:00 +27°C° 0 mm 4 m/S 739 mmHg 56%
    17:00 +26°C° 0 mm 4 m/S 739 mmHg 61%
    18:00 +25°C° 0 mm 3 m/S 739 mmHg 67%
    19:00 +24°C° 0 mm 3 m/S 739 mmHg 72%
    20:00 +21°C° 0 mm 3 m/S 740 mmHg 77%
    21:00 +19°C° 0 mm 3 m/S 740 mmHg 81%
    22:00 +17°C° 0 mm 3 m/S 741 mmHg 86%
    23:00 +16°C° 0 mm 2 m/S 741 mmHg 84%
    Mehr zeigen